Regional Weather Roundup
Issued by NWS

Home | Current Version | Previous Version | Graphics & Text | Print | Product List | Glossary On
Versions: 1 2 3 4 5 6 7 8 9 10 11 12 13 14 15 16 17 18 19 20 21 22 23 24 25 26 27 28 29 30 31 32 33 34 35 36 37 38 39 40 41 42 43 44 45 46 47 48 49 50
145
ASUS43 KDTX 231401
RWRMI
MICHIGAN HOURLY REGIONAL WEATHER ROUNDUP
NATIONAL WEATHER SERVICE DETROIT/PONTIAC MI
1000 AM EDT SUN APR 23 2017

NOTE: "FAIR" INDICATES FEW OR NO CLOUDS BELOW 12,000 FEET WITH NO
SIGNIFICANT WEATHER AND/OR OBSTRUCTION TO VISIBILITY.

MIZ047>049-052>055-059>063-066>070-074>076-081>083-231500-
SOUTHEAST LOWER MICHIGAN

CITY           SKY/WX    TMP DP  RH WIND       PRES   REMARKS
ADRIAN         SUNNY     53  38  56 CALM      30.14F
ALMA           SUNNY     55  33  44 SW9       30.12F
ANN ARBOR      SUNNY     53  37  54 SW5       30.13F
BAD AXE        SUNNY     54  33  44 SW9       30.11R HAZE
CARO           SUNNY     56  36  47 W8        30.11S
DETROIT CITY   SUNNY     53  34  48 W5        30.14S
DETROIT        SUNNY     53  36  52 CALM      30.15S
FLINT          SUNNY     56  36  47 SW8       30.12F
GROSSE ILE     SUNNY     50  31  47 CALM      30.13S
HILLSDALE      SUNNY     54  34  47 CALM      30.13S
HOWELL         SUNNY     56  32  40 SW5       30.13S

CITY           SKY/WX    TMP DP  RH WIND       PRES   REMARKS
JACKSON        SUNNY     56  33  42 NW6       30.13F
LAMBERTVILLE   SUNNY     53  29  40 CALM      30.13F
LANSING        SUNNY     58  31  35 SW7       30.14S
LAPEER         FAIR      57  32  39 SW8       30.12S
MASON          SUNNY     55  37  50 SW3       30.14S
MONROE         SUNNY     53  30  40 S3        30.13S
MT. CLEMENS    SUNNY     55  33  43 CALM      30.12S
PONTIAC        MOSUNNY   55  36  48 W5        30.12S
PORT HOPE        N/A     55  33  43 SW12G23   30.07R
PORT HURON     SUNNY     54  28  37 SW7       30.13S
TRI CITIES     SUNNY     54  36  50 SW10      30.11F
MIDLAND        FAIR      57  31  37 W8        30.10F
TROY           SUNNY     55  32  42 W3        30.15S
SAGINAW HB     SUNNY     55  32  41 SW8       30.11S
$$
MIZ043>046-050>051-056>058-064>065-071>073-077>080-231500-
SOUTHWEST LOWER MICHIGAN

CITY           SKY/WX    TMP DP  RH WIND       PRES   REMARKS
BATTLE CREEK   SUNNY     58  34  40 W3        30.14S
BENTON HARBOR  SUNNY     54  36  50 CALM      30.15S
BIG RAPIDS     SUNNY     54  24  30 W13G18    30.10S
COLDWATER      SUNNY     54  37  51 CALM      30.14R
FREMONT        FAIR      53  25  33 SW8       30.11F
HOLLAND        SUNNY     53  33  46 W7        30.14F
GRAND RAPIDS   MOSUNNY   54  31  41 SW8       30.13F
IONIA          FAIR      54  32  42 SW7       30.12F
KALAMAZOO      SUNNY     57  31  37 CALM      30.15R
LUDINGTON      SUNNY     51  35  53 SW9       30.10S
MARSHALL       SUNNY     56  35  45 CALM      30.14S
MOUNT PLEASANT SUNNY     56  28  35 W12       30.09F
MUSKEGON       MOSUNNY   55  23  28 SW12      30.13F
SOUTH HAVEN    SUNNY     51  41  68 W3        30.15S
$$
MIZ016>042-231500-
NORTHERN LOWER MICHIGAN

CITY           SKY/WX    TMP DP  RH WIND       PRES   REMARKS
ALPENA         MOSUNNY   56  32  40 NW10G18   30.06R
BEAVER ISLAND  CLOUDY    39  33  78 N10       30.13R WCI  33
BELLAIRE       SUNNY     49  37  64 N6        30.11R
CADILLAC       SUNNY     56  28  33 W9        30.08S
CHARLEVOIX     PTSUNNY   41  37  83 N9        30.15R
FRANKFORT      SUNNY     49  35  59 N7        30.11R
GAYLORD        SUNNY     51  28  41 NW8       30.08R
GRAYLING       SUNNY     54  30  39 W7        30.07S
HARBOR SPRINGS MOSUNNY   44  36  73 N6        30.11R
HOUGHTON LAKE  SUNNY     55  32  41 W8        30.08S
MANISTEE       SUNNY     51  36  56 SW7       30.10R
OSCODA         SUNNY     60  30  31 W12G17    30.06R
PELLSTON       CLOUDY    45  34  65 N9        30.11R
ROGERS CITY    PTSUNNY   47  38  72 NW18G24   30.10R
TRAVERSE CITY  MOSUNNY   48  37  65 N12       30.11R
$$
MIZ007>008-015-231500-
EASTERN UPPER MICHIGAN

CITY           SKY/WX    TMP DP  RH WIND       PRES   REMARKS
KINROSS        LGT RAIN  36  34  92 NW17G24   30.09R WCI  26
MACKINAC ISLAN CLOUDY    41  36  81 N10       30.10R
NEWBERRY       CLOUDY    33  32  96 NW10      30.12R WCI  25
S. S. MARIE    LGT RAIN  39  35  86 NW9       30.08R WCI  33
MUNISING         N/A     34  32  92 N21       30.18R WCI  22
$$
MIZ004>006-011>014-085-231500-
CENTRAL UPPER MICHIGAN

CITY           SKY/WX    TMP DP  RH WIND       PRES   REMARKS
MANISTIQUE     CLOUDY    36  33  88 N16G24    30.14R WCI  26
ESCANABA       CLOUDY    38  31  76 N9G17     30.16R WCI  31
MENOMINEE      CLOUDY    42  35  76 NE12      30.15R
SAWYER-GWINN   LGT SNOW  32  28  86 N15       30.16R WCI  22
$$
MIZ001>003-009>011-084-231500-
WESTERN UPPER MICHIGAN

CITY           SKY/WX    TMP DP  RH WIND       PRES   REMARKS
IRON MOUNTAIN  CLOUDY    39  28  64 N10       30.14R WCI  32
HOUGHTON       FLURRIES  31  24  75 NE8       30.20R WCI  23
COPPER HARBOR    N/A     33  24  69 NE16      30.21R WCI  23
IRONWOOD       FLURRIES  34  32  92 E9        30.20R WCI  27
$$

ABBREVIATIONS USED IN REMARKS
   TC - TEMPERATURE IN CELSIUS
  WCI - WIND CHILL INDEX
   HX - HEAT INDEX
  VSB - VISIBILITY





USA.gov is the U.S. government's official web portal to all federal, state and local government web resources and services.